Regional Weather Roundup
Issued by NWS

Home | Current Version | Previous Version | Text Only | Print | Product List | Glossary On
Versions: 1 2 3 4 5 6 7 8 9 10 11 12 13 14 15 16 17 18 19 20 21 22 23 24 25 26 27 28 29 30 31 32 33 34 35 36 37 38 39 40 41 42 43 44 45 46 47 48 49 50
000
ASUS43 KLMK 181002
RWRKY
KENTUCKY REGIONAL WEATHER ROUNDUP
NATIONAL WEATHER SERVICE LOUISVILLE KY
500 AM EST WED JAN 18 2017

NOTE "FAIR" INDICATES FEW OR NO CLOUDS BELOW 12,000 FEET
WITH NO SIGNIFICANT WEATHER AND/OR OBSTRUCTIONS TO VISIBILITY.

KYZ001>023-026-027-061>063-070>075-181100-
WESTERN AND SOUTH CENTRAL KENTUCKY

CITY           SKY/WX    TMP DP  RH WIND       PRES   REMARKS
PADUCAH        CLOUDY    44  37  76 CALM      30.19R
HENDERSON      CLOUDY    41  36  81 NW8       30.18R
OWENSBORO      CLOUDY    42  37  82 NW12      30.19R
HOPKINSVILLE   CLOUDY    44  40  85 NW5       30.17R
BOWLING GREEN  CLOUDY    45  38  76 NW6       30.18R
GLASGOW        NOT AVBL
$$

KYZ024-025-028>034-038-045-046-053-181100-
NORTH CENTRAL KENTUCKY

CITY           SKY/WX    TMP DP  RH WIND       PRES   REMARKS
LOUISVILLE/SDF CLOUDY    43  36  76 W9        30.15R HAZE
LOUISVILLE/LOU CLOUDY    43  37  79 W9        30.15S
FORT KNOX      CLOUDY    41  40  95 W9        30.14R
$$

KYZ035>037-039>044-047>052-055>060-089>105-181100-
NORTHEAST KENTUCKY

CITY           SKY/WX    TMP DP  RH WIND       PRES   REMARKS
LEXINGTON      CLOUDY    42  37  82 W13       30.13R
COVINGTON      DRIZZLE   40  38  93 W12       30.10R FOG     WCI  33
FRANKFORT      CLOUDY    43  37  79 W10       30.13R
$$

KYZ054-064>069-076>088-106>120-181100-
SOUTHEAST KENTUCKY

CITY           SKY/WX    TMP DP  RH WIND       PRES   REMARKS
JACKSON        CLOUDY    45  40  82 VRB6      30.09R
LONDON         CLOUDY    45  40  82 NW8       30.11S
SOMERSET       CLOUDY    43  41  93 N7        30.15R
MIDDLESBORO    CLOUDY    51  46  83 NW6       30.10R
MONTICELLO     CLOUDY    45  41  86 W8G16     30.16R
$$




USA.gov is the U.S. government's official web portal to all federal, state and local government web resources and services.